This is the latest recevied weather packets stored in our database for station/object CX5ACA-13. If no packets are shown the sender has not sent any weather packets the latest 10 day(s).
| Time | Temp. | Humidity | Pressure | Rain* | Wind** | Luminosity | Snow |
|---|---|---|---|---|---|---|---|
| 1777920023 | 23.33° C | 43% | 1011.4 hPa | 0 mm | - | 205 W/m² | - |
| 1777919721 | 22.78° C | 44% | 1011.5 hPa | 0 mm | - | 295 W/m² | - |
| 1777919419 | 23.33° C | 44% | 1011.4 hPa | 0 mm | - | 317 W/m² | - |
| 1777919115 | 22.78° C | 44% | 1011.8 hPa | 0 mm | - | 294 W/m² | - |
| 1777918813 | 22.22° C | 44% | 1011.5 hPa | 0 mm | - | 281 W/m² | - |
| 1777918509 | 21.67° C | 45% | 1011.3 hPa | 0 mm | - | 259 W/m² | - |
| 1777918208 | 22.78° C | 43% | 1011.6 hPa | 0 mm | - | 252 W/m² | - |
| 1777917907 | 22.22° C | 42% | 1011.6 hPa | 0 mm | - | 337 W/m² | - |
| 1777917605 | 22.78° C | 41% | 1011.8 hPa | 0 mm | - | 368 W/m² | - |
| 1777917302 | 22.78° C | 43% | 1011.7 hPa | 0 mm | - | 377 W/m² | - |
| 1777916999 | 22.78° C | 43% | 1012.1 hPa | 0 mm | - | 408 W/m² | - |
| 1777916696 | 22.78° C | 42% | 1012.2 hPa | 0 mm | - | 398 W/m² | - |
| 1777916393 | 22.78° C | 42% | 1012.2 hPa | 0 mm | - | 417 W/m² | - |
| 1777916090 | 22.78° C | 43% | 1012.1 hPa | 0 mm | - | 382 W/m² | - |
| 1777915787 | 22.78° C | 45% | 1012 hPa | 0 mm | - | 326 W/m² | - |
| 1777915483 | 22.78° C | 44% | 1012.2 hPa | 0 mm | - | 448 W/m² | - |
| 1777915180 | 22.78° C | 45% | 1012.3 hPa | 0 mm | - | 460 W/m² | - |
| 1777914877 | 22.78° C | 42% | 1012.3 hPa | 0 mm | - | 382 W/m² | - |
| 1777914574 | 22.78° C | 42% | 1012.4 hPa | 0 mm | - | 480 W/m² | - |
| 1777914270 | 22.22° C | 44% | 1012.5 hPa | 0 mm | - | 415 W/m² | - |
| 1777913967 | 22.22° C | 42% | 1012.5 hPa | 0 mm | - | 320 W/m² | - |
| 1777913664 | 21.67° C | 44% | 1012.8 hPa | 0 mm | - | 307 W/m² | - |
| 1777913361 | 21.67° C | 48% | 1012.8 hPa | 0 mm | - | 363 W/m² | - |
| 1777913057 | 21.67° C | 48% | 1013.1 hPa | 0 mm | - | 316 W/m² | - |
| 1777912753 | 21.11° C | 50% | 1012.9 hPa | 0 mm | - | 419 W/m² | - |
* Rain latest hour (hover to see other rain measurements)
** Current wind speed in m/s (hover to see current wind gust speed)